BEESAT

Last updated on Wed Feb 06 2019 03:04:44 GMT+0000 (Coordinated Universal Time)

1 35933U 09051C 19036.03777388 .00000078 00000-0 28618-4 0 9994 2 35933 98.5735 199.9051 0005159 220.0952 139.9865 14.56335604497431
UTC large
Height (km)
Speed (km/s)
/
Latitude / Longitude
Inclination (degrees)
Orbital Period (minutes)
Azimuth
Elevation
Range (km)
Doppler Factor

Next 0 passes for location: London (51.5072 / 0.1276)

Sorry there are no passes over London.